Dewpoint
51 51 51 51 50 49 48 48 47 48 48 48 48 48 48 49 48 47 48 46 47 46 46 45 45 45 44 45 44 44 44 44 45 45 45 45 45 45 45 45 45 45 46 46 46 47 47 48 49 49 50 51 52 57 59 60 60 60 60 60 59 59 59 58 57 56 57 59 59 59 61 61 60 59 59 59 55 57 57 58 56 56 55 55 54
51 51 51 51 50 49 48 47 47 47 47 48 47 48 48 47 48 47 45 47 46 46 45 45 46 45 44 44 44 44 44 44 44 44 45 44 44 46 46 45 44 44 45 44 45 46 46 46 46 47 49 49 50 51 56 59 60 60 60 60 59 59 59 59 58 57 56 57 58 59 60 61 59 59 59 56 52 54 56 56 56 56 56 55 54
51 51 51 50 49 49 48 47 47 47 47 47 47 48 48 47 48 46 46 46 47 46 45 45 45 45 44 44 44 44 44 44 44 44 44 44 44 44 45 44 44 44 44 44 44 44 44 45 45 46 47 48 49 50 51 53 58 57 58 60 59 59 58 58 58 56 56 56 58 58 58 58 59 57 59 56 53 54 55 55 56 55 55 54 54
51 50 50 50 49 48 48 48 47 47 47 47 47 47 48 47 48 47 47 46 46 46 46 46 45 43 43 43 43 43 43 43 43 44 44 44 44 44 44 44 44 44 44 44 44 44 44 44 44 45 45 46 46 48 49 51 53 57 57 57 59 59 58 58 58 56 56 55 57 58 58 58 59 57 58 52 51 53 54 54 54 54 54 53 52
50 49 49 49 49 48 48 48 47 47 47 47 47 47 47 47 47 46 46 46 46 45 46 45 43 43 43 43 42 41 42 43 43 43 44 44 44 44 44 44 44 44 44 44 45 44 44 44 44 44 45 45 45 46 47 49 50 51 55 56 56 57 58 58 57 57 57 56 55 57 58 58 58 56 53 49 49 49 49 50 51 51 50 50 50
49 49 49 49 48 48 48 47 47 47 47 47 47 47 47 47 47 47 46 46 45 45 44 43 43 42 41 41 41 41 41 42 42 43 43 43 43 43 43 43 44 44 44 44 44 44 44 44 44 44 44 45 45 46 47 47 49 50 51 53 55 57 57 57 58 58 57 57 56 55 57 57 56 54 51 49 48 47 46 45 46 47 47 46 46
49 49 48 48 48 47 47 47 47 47 47 47 47 47 47 47 46 46 46 45 44 43 43 41 42 41 41 41 41 41 41 42 42 42 42 42 42 42 42 43 43 43 43 43 43 43 43 43 44 44 44 44 45 45 45 46 48 49 50 51 53 56 57 57 57 58 58 57 57 57 56 55 55 53 51 47 48 48 46 43 43 42 45 46 45
48 48 48 48 47 47 47 47 47 47 47 47 47 47 47 46 46 45 45 44 43 42 41 41 41 42 42 42 42 43 42 42 42 42 42 42 42 42 42 42 42 42 42 43 43 43 43 43 43 43 44 44 45 45 45 45 47 48 49 50 51 54 56 56 56 57 57 57 57 57 57 56 54 53 50 46 46 46 46 45 44 42 43 44 45
47 47 47 48 47 48 48 47 47 47 47 47 46 46 45 45 45 44 44 43 44 42 42 41 40 40 41 41 41 42 42 42 42 42 41 41 41 41 41 41 42 42 42 42 43 43 43 43 43 43 45 46 45 44 45 45 45 45 45 46 46 48 51 55 56 56 56 56 56 56 56 55 53 49 47 46 46 47 46 44 44 43 43 43 42
47 47 47 47 48 48 47 47 46 46 46 46 45 45 44 44 44 43 42 42 41 42 41 41 40 40 40 40 40 41 42 42 43 42 41 42 41 41 41 41 40 40 40 40 40 40 40 41 43 45 45 44 44 43 42 42 43 44 44 45 45 46 47 49 53 56 56 56 56 57 55 54 52 50 48 48 47 45 43 43 42 41 41 40 39
46 46 47 47 47 47 46 46 45 45 45 44 44 44 44 44 43 43 42 41 41 41 41 40 40 40 40 39 39 40 41 41 40 38 38 38 39 39 39 39 39 39 39 39 39 40 40 40 40 41 42 42 43 42 41 41 41 41 42 42 43 44 44 45 46 51 55 56 56 55 55 54 53 49 48 46 45 43 43 43 42 40 39 39 40
46 46 46 46 45 45 45 45 44 44 44 43 43 43 43 43 42 42 41 41 41 40 40 40 39 39 39 39 38 39 39 40 38 38 38 37 38 39 37 37 38 37 37 38 38 39 39 40 40 41 41 41 41 41 41 41 41 40 40 40 40 40 41 43 44 46 50 54 55 56 55 53 54 52 49 47 45 42 41 42 41 40 40 41 43
44 45 45 44 43 44 44 44 44 43 43 43 43 42 42 41 41 40 40 40 40 39 39 39 38 38 38 38 38 39 39 39 37 37 37 37 37 37 36 36 36 36 36 37 37 37 37 38 39 40 40 42 43 41 41 41 41 41 41 41 41 41 40 39 40 45 46 49 52 55 55 54 53 52 49 48 46 43 41 41 40 40 40 41 42
45 44 43 43 43 43 43 43 42 42 41 41 41 41 41 40 40 40 40 39 38 38 38 37 38 38 38 38 39 39 38 39 37 37 37 37 36 36 36 36 36 35 36 36 36 36 36 36 36 37 38 39 39 40 40 40 40 41 42 43 45 45 42 41 40 39 42 46 48 50 54 55 54 54 51 49 46 43 41 40 40 40 40 40 42
44 42 42 42 43 42 42 41 40 40 40 40 40 39 39 39 39 39 38 38 37 36 36 36 36 38 38 39 38 38 38 38 37 36 36 36 36 36 36 36 35 35 35 35 36 36 36 37 37 37 37 37 39 39 39 39 40 41 40 41 42 43 45 46 47 46 43 44 45 48 50 54 56 54 54 51 50 46 43 41 41 41 43 42 39
39 41 41 41 41 40 40 39 39 40 40 40 40 39 38 39 38 38 37 37 37 37 36 37 36 36 37 37 37 36 37 36 36 36 36 36 36 36 35 34 34 34 34 34 35 35 36 36 36 37 37 37 38 37 38 38 38 39 39 39 39 40 41 42 42 44 46 47 46 46 48 51 52 54 53 51 49 49 47 44 41 40 39 39 37
40 40 40 40 39 39 39 39 39 39 39 39 39 38 38 38 37 37 37 35 35 35 35 35 36 36 36 36 36 35 35 36 35 35 35 35 35 34 33 33 33 33 33 34 34 35 35 36 36 36 36 37 37 36 36 37 37 37 38 38 38 39 39 41 41 41 42 42 42 42 42 43 46 48 47 45 48 48 45 43 41 40 39 38 38
41 39 38 38 38 38 38 38 38 39 39 39 38 38 37 36 35 36 36 34 34 35 35 34 34 35 35 35 35 35 35 35 35 35 35 34 35 33 33 33 32 32 32 32 33 33 34 38 38 36 36 36 36 36 36 37 37 37 37 37 37 37 38 40 43 45 44 44 43 41 41 41 43 46 47 45 44 45 46 43 42 41 40 40 39
39 38 38 38 37 36 37 38 39 38 38 38 38 36 35 33 36 36 35 34 34 34 35 33 33 34 35 35 38 36 34 34 35 34 34 34 34 33 33 32 31 31 31 31 32 33 33 36 37 37 37 37 36 36 36 37 37 37 37 37 37 37 37 39 42 44 47 49 50 49 46 43 45 49 50 45 44 45 46 45 45 42 40 41 41
39 38 37 36 36 37 37 37 37 38 37 37 36 35 35 34 36 35 34 33 32 33 33 33 33 34 34 34 34 34 33 33 34 34 34 34 35 34 33 32 31 31 31 31 32 32 33 34 36 35 35 35 35 35 36 36 37 38 38 37 37 37 38 40 44 48 47 49 50 51 50 49 48 50 51 49 47 48 47 46 46 44 43 42 42
34 34 35 34 35 36 36 35 35 36 36 36 36 35 34 33 35 34 33 33 32 32 32 32 32 33 33 33 33 33 33 33 33 34 34 34 34 34 32 32 32 32 32 32 32 33 33 34 35 36 35 35 35 35 35 36 36 38 38 37 37 38 38 40 42 40 44 45 46 49 51 49 49 50 52 50 48 48 48 48 48 46 45 45 44
32 31 32 32 31 31 31 33 34 36 35 36 34 34 35 35 34 34 33 32 31 31 31 31 32 32 32 32 32 32 33 35 33 34 34 34 34 34 33 32 32 32 32 32 32 33 34 34 35 36 35 35 35 35 36 36 36 38 37 36 36 36 37 38 39 41 42 44 46 47 49 49 49 50 50 49 49 48 49 49 48 48 48 47 45
31 31 30 30 31 31 31 32 34 37 36 36 35 34 35 34 33 34 32 31 30 30 30 30 31 31 31 31 31 32 32 33 35 33 34 34 34 33 33 33 33 32 32 33 34 34 34 35 36 37 36 36 36 35 36 36 36 36 36 36 36 35 36 37 38 39 41 42 43 45 47 47 49 49 49 48 48 48 48 48 48 48 47 46 47
29 29 29 30 31 31 33 35 36 36 36 36 35 33 33 32 33 33 32 31 30 28 29 30 30 31 30 30 32 32 32 32 33 33 33 33 33 33 33 33 33 33 34 33 34 34 34 34 35 35 35 36 36 36 36 36 36 35 35 35 35 36 37 37 38 39 38 40 42 44 46 46 47 48 47 47 46 47 46 45 46 45 44 44 44
29 29 30 30 31 30 31 30 31 31 31 30 28 30 32 32 30 30 31 29 28 28 29 29 30 30 30 31 31 31 32 32 32 33 33 33 33 33 33 33 33 33 34 35 35 35 35 35 35 35 35 35 35 35 36 36 35 35 35 35 36 36 37 37 38 39 40 40 41 43 45 45 44 44 44 43 42 43 43 42 42 42 42 42 42
30 31 28 25 25 24 26 28 29 31 30 30 30 31 31 31 31 31 30 29 28 29 29 30 31 30 30 31 31 31 32 32 32 32 33 34 33 33 33 34 34 35 35 35 34 34 34 34 34 34 34 35 36 36 36 36 36 36 35 36 37 37 37 38 39 40 40 41 42 43 45 43 42 42 41 41 42 42 42 41 40 40 41 41 41
33 28 25 25 24 24 25 26 28 29 31 31 31 32 31 30 30 30 30 29 29 30 28 30 30 29 30 30 31 32 32 32 32 32 33 33 34 35 35 35 35 34 35 35 35 34 34 35 34 34 34 34 35 35 36 36 37 38 39 38 38 38 38 39 40 40 41 42 43 44 42 41 41 40 41 41 40 40 41 40 40 40 40 41 40
28 26 26 26 28 28 26 28 28 28 29 28 27 28 30 31 29 30 29 29 28 28 27 28 29 30 31 31 32 32 32 32 33 33 33 35 35 35 35 35 34 34 34 34 34 35 35 35 35 36 36 36 36 36 37 37 38 37 40 41 41 40 40 39 39 41 42 44 44 41 39 39 40 40 40 40 39 39 40 40 40 39 39 39 37
28 26 28 28 27 29 30 31 30 28 28 28 28 29 30 29 30 30 30 30 30 29 28 28 30 30 30 32 32 32 32 32 33 34 34 33 33 34 34 34 34 34 34 34 34 35 35 35 34 35 36 35 35 35 36 37 37 38 39 40 41 41 41 41 41 42 44 43 40 39 37 39 38 38 38 37 37 38 39 39 39 38 38 39 38
27 29 30 28 28 28 29 29 29 28 28 28 29 31 31 32 32 31 30 34 34 33 32 29 30 29 30 32 33 33 33 34 34 33 34 34 34 34 33 33 33 34 34 33 34 33 33 33 33 34 35 36 35 35 35 36 37 37 38 38 39 40 41 41 42 43 41 41 39 38 37 37 36 37 37 36 36 36 37 37 37 37 36 36 36
29 31 30 28 28 30 30 31 28 28 29 28 29 30 29 29 32 33 33 33 33 33 34 33 34 34 32 32 33 34 34 34 33 34 34 34 33 33 33 33 33 33 33 33 33 33 34 33 33 34 34 35 35 35 35 36 36 37 37 37 38 38 38 41 42 39 39 39 38 37 37 36 36 36 35 35 35 35 35 35 36 36 36 35 35
32 32 31 31 29 29 31 30 29 30 29 28 28 26 26 29 29 31 33 33 34 34 33 33 33 33 33 33 34 34 33 33 33 34 34 33 33 33 33 33 33 33 33 33 33 34 35 35 34 35 35 35 36 36 36 36 36 36 37 38 38 39 39 40 39 40 38 38 37 36 36 36 35 35 34 34 33 34 34 34 34 34 34 35 35
31 30 30 31 31 31 29 29 28 30 30 28 28 26 26 26 24 25 29 32 33 33 32 33 33 33 33 33 34 33 33 33 33 33 33 33 33 32 32 33 33 33 33 33 33 33 33 34 35 35 35 35 35 36 36 36 36 36 36 36 37 38 39 39 37 39 37 37 36 36 35 35 34 34 33 33 33 33 33 32 33 33 33 32 32
30 28 29 30 31 31 31 31 29 28 29 28 26 26 26 26 23 22 21 25 28 30 31 31 32 33 33 33 33 33 33 33 33 33 33 33 32 32 32 32 32 32 32 32 32 33 34 34 34 34 34 34 34 34 35 35 35 35 35 35 35 35 36 37 38 36 36 36 36 35 35 34 33 33 32 32 32 32 32 32 32 31 31 31 31
29 28 30 31 29 28 28 30 31 29 28 29 28 27 28 27 23 23 24 22 25 27 27 28 31 32 32 32 33 33 33 33 33 33 33 32 32 32 32 31 30 31 32 32 32 32 32 33 34 34 34 33 33 33 34 34 34 34 34 34 34 35 35 36 36 36 35 35 35 34 34 33 33 32 32 31 31 31 31 31 31 31 30 30 30
29 27 29 31 31 29 29 30 31 30 29 29 28 28 27 25 25 24 25 26 27 26 27 24 26 31 32 32 33 33 33 33 33 32 32 32 32 32 30 30 30 30 30 31 31 32 33 33 33 33 34 34 34 33 33 33 33 33 34 34 34 34 34 34 34 35 35 35 34 33 33 33 32 32 31 31 31 30 30 30 30 30 30 29 28
31 31 32 31 29 29 31 31 30 30 30 29 28 27 26 25 25 26 26 26 26 27 26 25 27 30 31 31 32 33 32 32 32 32 32 32 31 31 30 30 30 30 30 30 31 31 32 32 32 33 33 33 33 34 33 33 34 34 33 33 33 33 33 33 33 33 34 33 33 33 32 32 32 31 31 30 30 29 29 30 30 29 28 28 26
28 27 28 29 30 31 31 31 32 31 31 29 28 27 25 24 25 26 26 27 26 26 27 26 29 26 28 29 33 32 32 32 32 31 31 31 30 30 30 30 30 30 30 31 31 31 31 32 32 32 32 33 33 33 33 32 32 33 32 32 32 32 33 32 32 32 32 32 32 32 31 31 31 30 30 29 28 28 27 28 27 26 26 26 25
27 27 28 27 29 31 32 31 31 31 30 30 29 25 25 25 27 27 27 26 25 26 26 25 26 27 27 29 30 32 31 30 30 30 30 30 30 30 30 30 30 30 30 31 31 31 31 31 31 32 32 32 32 32 32 32 32 32 32 31 31 32 31 31 31 31 31 31 31 30 30 29 29 29 28 27 27 27 27 27 26 25 25 25 26
28 27 27 28 28 31 31 31 31 31 30 30 28 26 24 26 26 27 27 25 26 25 24 24 27 26 27 28 30 31 30 30 31 31 30 30 30 30 30 30 30 30 30 30 31 31 31 31 31 31 32 32 32 32 32 32 32 31 32 32 31 31 31 30 30 30 30 30 29 29 28 28 27 27 27 26 26 26 26 26 26 27 27 26 26
34 32 30 30 31 33 33 32 31 30 30 29 29 27 25 26 27 28 26 25 25 26 26 25 27 28 29 30 32 32 31 31 31 31 31 30 30 30 30 30 30 30 30 30 31 31 31 31 31 31 31 31 32 32 32 32 31 31 31 31 31 31 30 30 30 30 29 29 28 27 27 27 26 26 26 26 27 27 27 27 27 25 24 24 23
34 34 34 34 31 34 33 31 31 31 31 30 30 29 28 27 28 27 26 27 27 27 26 26 26 28 31 32 32 32 32 31 31 31 31 31 31 30 31 31 31 31 31 31 31 31 31 31 31 31 31 31 31 31 31 31 31 31 31 30 30 30 29 29 29 29 29 28 28 27 27 27 27 26 27 27 26 26 26 25 24 23 22 22 23
34 34 34 33 33 32 30 32 31 31 30 30 30 30 30 28 27 27 27 26 25 26 25 26 26 28 28 31 31 31 31 31 31 31 31 31 31 31 31 31 31 31 31 31 31 31 31 31 31 31 31 31 31 31 31 31 31 31 31 31 30 30 29 30 29 29 29 28 28 28 28 27 27 26 27 27 27 26 26 25 24 24 24 25 26
33 34 34 34 33 33 32 32 31 31 30 31 31 30 29 28 28 28 28 27 25 25 26 26 26 27 27 29 30 30 30 30 30 31 32 31 31 31 31 31 31 31 31 31 31 31 31 31 31 31 31 31 31 32 31 31 32 31 31 30 30 30 30 30 29 29 29 28 28 28 28 28 28 28 28 28 27 27 26 27 26 26 26 26 27
33 32 32 34 34 33 34 33 31 30 30 30 31 31 31 30 30 31 31 30 29 26 25 27 27 28 28 28 29 29 29 30 30 31 31 32 31 31 32 32 31 31 31 31 31 31 31 31 31 31 31 31 31 31 31 31 31 31 31 30 30 29 29 30 30 30 30 29 29 29 29 29 29 29 29 29 29 28 27 28 27 28 28 28 28
33 33 32 32 32 32 32 32 32 32 32 32 32 32 32 32 32 32 32 32 31 29 27 27 27 28 28 28 28 29 29 29 30 31 31 32 32 32 32 32 32 32 32 32 32 31 31 31 31 31 31 31 31 31 31 31 31 31 31 31 30 30 30 30 30 30 30 30 30 30 30 30 30 30 30 29 29 29 29 29 29 29 29 29 29
33 33 32 32 32 32 32 32 32 32 32 32 32 32 32 32 32 32 32 32 32 32 30 27 27 28 28 27 28 28 29 29 29 30 31 31 32 32 32 32 32 32 32 32 32 31 31 31 31 31 31 31 31 31 31 31 31 31 31 31 31 31 30 30 30 30 30 30 30 30 30 30 30 30 30 30 30 30 30 30 30 30 29 29 29
32 32 32 32 32 32 32 32 32 32 32 32 31 31 31 32 31 32 32 32 32 32 32 31 30 29 29 28 28 29 29 28 28 29 30 31 31 32 32 32 32 32 32 32 32 32 32 31 31 31 31 31 31 31 31 31 31 31 31 31 31 31 31 31 31 31 30 30 29 29 29 29 29 29 30 30 30 30 29 29 29 29 29 29 28
32 32 31 32 32 31 32 32 32 32 32 31 31 31 31 31 31 31 31 31 31 31 32 31 32 31 31 31 29 28 28 28 28 29 29 30 31 31 32 32 32 32 32 32 32 32 32 32 32 32 32 31 31 31 31 31 31 31 31 31 31 31 31 31 31 31 31 30 30 29 29 29 29 29 29 29 29 29 29 29 28 28 28 28 28
32 32 31 31 31 31 31 31 31 31 31 31 31 31 31 31 30 30 30 31 30 31 31 31 31 31 31 31 31 31 30 29 28 28 29 29 29 30 31 32 32 32 32 32 32 32 32 32 32 32 32 32 32 32 31 31 31 31 31 31 31 31 31 31 31 31 31 30 30 29 29 29 29 28 28 28 28 28 28 28 28 27 27 27 27
31 31 31 31 31 31 31 30 31 31 30 30 30 30 30 30 30 30 30 30 30 30 30 30 30 31 31 31 31 31 31 31 31 30 28 29 29 30 31 31 32 32 32 32 32 32 32 32 32 32 32 32 32 32 32 31 31 31 31 31 31 31 31 31 31 31 31 30 30 30 29 29 28 28 27 27 27 27 27 27 27 26 26 26 26